Starlink 31147

operational
NORAD ID: 58681 Int'l Des: 2023-211 Owner: SPXS Country: US Constellation: starlink
LEOCIRCULAR

关于 Starlink 31147

正在加载描述...

实时位置

正在加载3D地球...

即将过境

高度历史

Altitude vs Time

uPlot chart will show altitude changes over time

两行轨道根数

1 58681U 23211Q 25305.73259582 .00001607 00000-0 67907-4 0 9990
2 58681 43.0042 88.0484 0001712 279.5244 80.5414 15.27577941102899
Epoch: Nov 1, 2025 • Age: 53 hours

当前状态

高度 486.1 km
速度 7.62 km/s
星下点 -18.58°S, 28.82°E
发射日期 Dec 29, 2023
运行时间 1.8 years
类型 internet

技术详情

分类 Payload
质量 730.00 kg
干质量 700.00 kg
总质量 730.00 kg
长度 0.30 m
直径 4.10 m
跨度 29.00 m
形状 Box + pan
制造商 SPXS
平台类型 Starlink V2M
阶段状态 In Orbit
所有者/国家 SPXS/US

大型星座

Loading constellations...